Temperature
25 24 23 24 28 30 33 34 34 34 34 34 33 34 32 30 29 28 27 25 24 24 24 23 22 21 21 21 21 20 20 20 20 20 20 20 20 20 20 20 20 20 19 19 19 20 20 20 20
25 24 25 27 29 30 32 34 34 34 34 34 34 34 32 30 29 27 26 24 24 24 24 23 22 22 21 21 21 20 20 20 20 20 20 20 20 20 20 20 20 20 20 20 20 20 20 20 20
26 25 27 31 30 31 32 34 34 35 34 34 33 32 31 29 28 27 25 24 23 24 24 24 23 22 21 21 21 21 20 20 20 20 20 20 20 20 20 20 20 20 20 20 20 20 20 20 20
25 28 29 32 32 32 34 34 35 35 34 34 33 31 29 28 28 26 25 24 23 23 24 24 23 22 22 21 21 21 21 21 20 20 20 20 20 20 20 20 20 20 20 20 20 20 20 20 20
27 30 32 33 33 34 35 35 35 34 35 34 33 30 28 27 27 26 25 24 23 22 24 24 23 22 22 21 21 21 21 21 20 20 20 20 20 20 20 20 20 20 20 20 20 19 19 20 19
29 33 33 33 32 33 35 35 34 34 34 34 33 30 28 27 26 26 25 24 24 23 23 24 23 23 22 22 21 21 21 21 20 20 20 20 20 20 20 20 20 20 19 19 19 19 19 19 19
31 32 33 34 33 31 34 35 34 33 34 34 33 31 28 27 26 26 25 25 24 23 23 24 23 23 22 22 22 21 21 21 21 21 20 20 20 20 20 20 20 19 19 19 19 19 19 19 19
31 33 33 34 33 32 33 34 34 34 33 33 33 32 29 27 26 26 26 26 25 23 23 23 23 23 22 22 22 21 21 21 21 21 20 20 20 20 20 20 20 19 19 19 19 19 19 19 19
31 32 32 34 34 33 34 34 34 33 32 33 32 31 29 27 27 26 26 26 26 24 23 23 22 23 22 22 22 21 21 21 21 20 20 20 20 20 19 19 19 19 19 19 19 19 19 19 19
33 32 33 35 35 35 34 34 34 33 32 31 28 28 28 27 27 26 26 26 26 25 23 23 22 21 21 21 21 21 21 21 20 20 20 20 20 19 18 18 18 19 19 19 19 19 19 19 19
33 33 34 35 35 35 35 35 35 35 32 28 25 25 26 27 27 26 26 26 25 24 24 23 22 21 21 21 20 20 20 20 20 20 19 19 19 19 19 19 19 19 19 19 19 19 19 19 19
34 34 34 34 34 34 34 35 35 35 32 29 28 26 26 26 27 27 26 26 24 24 24 24 23 21 21 21 21 20 20 20 19 19 19 19 19 19 19 19 19 18 18 18 19 18 18 18 18
33 33 33 34 34 34 34 34 34 34 31 29 27 26 26 26 27 27 27 26 24 24 23 24 23 22 21 21 21 20 20 20 20 19 19 19 19 19 18 18 19 19 19 18 18 18 18 18 18
33 33 33 33 33 34 34 34 34 34 32 29 27 26 26 27 27 28 27 25 24 23 23 23 22 21 21 21 21 20 20 20 20 19 19 19 19 19 18 18 18 18 18 18 18 18 18 18 18
32 32 32 33 34 34 34 33 34 34 34 32 29 28 28 28 28 28 26 25 24 24 23 23 22 21 21 20 20 20 20 20 19 19 19 19 19 19 18 18 18 18 18 18 18 18 18 18 18
32 31 31 33 34 34 33 32 34 34 34 33 32 31 30 29 29 28 26 25 25 24 23 22 22 21 21 20 20 20 20 19 19 19 19 19 18 18 18 18 18 18 18 18 18 18 17 17 17
31 31 31 33 35 35 33 32 34 34 33 32 32 31 30 29 29 28 27 25 25 24 23 22 22 21 21 20 20 20 20 19 19 19 19 18 18 18 18 17 17 17 17 17 17 17 17 17 17
31 32 32 33 34 33 32 32 33 33 33 32 32 31 30 28 27 27 26 25 25 24 23 22 21 21 20 20 20 20 20 20 20 20 19 18 18 18 17 17 17 17 17 17 17 17 17 16 17
31 31 31 33 33 32 31 32 32 33 32 32 31 31 29 28 26 26 25 24 23 22 22 21 21 21 20 20 20 20 20 20 20 20 19 19 18 18 17 17 16 16 16 16 16 16 16 16 16
31 31 31 32 33 32 31 31 32 33 32 31 30 29 27 26 24 23 22 22 22 21 21 21 21 21 20 21 21 21 21 20 20 20 19 19 18 17 17 17 16 16 16 16 16 16 15 15 16
30 30 30 30 31 31 31 30 31 31 31 30 28 26 24 23 21 20 19 18 19 19 20 20 20 20 20 20 20 20 20 20 20 20 19 19 18 18 17 17 16 16 16 15 15 15 15 15 15
29 30 30 30 29 29 30 29 30 30 28 26 24 21 20 18 18 17 17 17 17 18 19 20 20 20 20 20 20 20 20 20 20 20 19 19 18 18 17 17 16 16 16 16 15 15 15 15 15
30 30 30 30 29 28 29 29 29 29 26 23 21 19 18 17 16 15 16 16 17 17 18 19 19 19 19 19 19 19 19 19 19 19 19 19 18 18 17 17 16 16 16 16 15 16 15 15 15
31 30 30 29 26 23 23 24 26 26 24 22 20 18 17 16 15 15 15 16 16 17 17 17 18 18 18 18 18 18 18 18 19 19 19 18 18 18 17 17 16 16 16 16 16 15 15 15 15
30 29 27 26 23 20 21 22 23 23 22 21 20 19 17 16 16 15 15 15 15 15 15 16 16 16 16 16 17 17 17 17 17 18 18 18 18 17 17 17 16 16 16 16 16 15 15 15 15
29 29 27 26 26 26 24 24 21 22 21 20 19 19 18 17 16 16 15 15 14 14 14 14 15 15 15 15 15 15 15 16 16 16 16 17 17 17 17 17 17 16 16 16 15 15 15 15 15
29 28 29 28 27 27 27 22 20 20 20 20 20 19 18 18 17 16 16 15 15 14 14 14 14 14 14 14 14 14 14 14 15 15 15 16 16 16 16 16 16 15 15 15 15 15 15 15 15
30 29 28 27 25 25 27 23 20 19 19 20 19 18 18 17 17 16 16 15 14 14 14 13 13 13 13 13 14 13 14 14 14 14 14 15 15 15 15 15 15 15 15 15 15 14 14 14 14
29 29 28 27 26 25 24 23 21 19 19 19 19 18 17 17 16 16 15 15 14 14 13 13 12 12 12 12 12 12 13 13 13 13 14 14 14 14 14 14 14 14 14 14 14 14 14 14 14
29 28 27 26 25 25 25 21 20 20 20 19 18 17 17 16 16 15 15 14 14 13 13 12 12 11 11 11 11 11 11 11 11 12 12 13 13 13 14 13 14 14 14 14 14 14 14 14 14
Wind_Speed
10 12 10 7 6 7 3 11 14 14 12 10 9 9 19 16 12 11 15 23 26 22 21 21 19 17 16 15 15 15 15 15 14 13 12 11 10 9 9 8 8 8 8 8 8 8 8 8 8
10 13 9 5 6 4 5 12 12 10 7 8 8 11 17 14 14 15 18 23 25 22 20 20 20 18 16 16 15 15 15 14 13 13 11 10 9 8 8 8 7 7 7 7 7 7 7 7 6
11 13 6 6 4 3 5 10 8 10 9 9 11 13 12 10 12 14 19 23 23 20 19 21 21 18 17 16 15 15 14 13 13 12 11 10 9 8 7 7 6 6 6 5 5 5 5 5 5
8 7 6 8 3 1 4 7 6 10 9 8 12 11 9 8 10 17 20 22 22 19 19 21 21 19 17 16 15 14 14 13 12 12 11 10 9 8 7 6 6 6 5 5 5 5 5 4 4
9 7 10 9 2 2 5 5 7 8 7 12 17 13 11 10 16 20 19 21 19 19 19 20 20 18 17 15 14 14 13 12 12 11 10 10 9 8 8 7 7 7 7 6 6 6 6 7 7
6 8 12 7 3 6 4 6 8 6 7 10 16 15 9 12 15 18 18 18 19 20 19 19 19 18 16 15 14 13 13 12 11 11 10 10 9 9 9 9 9 9 9 9 8 8 8 8 9
11 13 17 14 5 5 6 4 10 8 5 5 11 13 11 14 16 17 17 17 18 20 19 17 18 17 16 16 15 14 14 13 12 12 11 11 10 10 11 11 11 11 11 11 11 11 11 11 11
12 11 19 14 5 6 8 5 4 6 4 2 6 10 14 18 18 17 16 15 17 20 19 17 17 16 15 15 15 15 14 14 13 13 12 12 12 13 14 14 15 14 14 14 13 13 14 14 14
14 13 17 14 4 4 5 5 2 4 8 7 3 9 21 23 20 18 15 14 14 18 18 17 17 15 15 15 17 16 14 14 14 13 14 13 13 14 16 19 19 19 18 17 16 16 16 16 17
12 14 18 11 7 1 1 4 5 4 8 3 13 15 17 20 19 18 16 15 13 14 17 16 17 16 14 13 15 14 14 15 15 14 15 15 14 14 14 15 21 21 21 19 19 18 17 16 15
15 17 17 13 9 8 7 8 9 9 4 11 17 9 2 11 16 16 16 15 12 11 11 15 14 14 12 7 11 9 10 11 15 15 13 13 11 11 11 8 12 17 18 16 16 17 16 15 14
16 16 15 13 12 10 11 13 12 10 5 19 25 22 17 17 17 17 16 15 14 11 11 12 14 13 8 6 6 6 5 5 7 12 14 10 5 5 5 4 5 8 11 9 10 8 12 13 13
13 15 16 15 13 12 13 14 14 9 7 20 24 23 22 22 19 17 16 15 15 12 12 9 10 10 8 4 2 4 4 3 5 5 9 9 5 5 5 4 3 5 6 4 5 5 5 4 4
14 15 14 14 15 15 15 14 15 13 8 16 22 22 22 22 20 18 16 15 15 14 13 11 10 10 8 6 4 2 2 1 2 1 2 3 3 3 4 4 4 4 5 6 4 5 5 4 5
14 15 17 19 19 18 15 15 16 16 12 11 16 19 20 20 17 16 17 16 17 15 13 12 11 12 10 8 7 5 4 3 2 1 2 3 3 3 3 4 5 5 7 7 5 6 5 7 8
15 16 19 21 21 17 11 13 14 11 8 5 7 12 14 14 16 16 18 15 16 16 14 12 12 13 11 7 6 4 4 2 2 3 4 5 4 5 3 5 5 4 5 4 6 6 7 7 7
17 18 20 20 18 13 9 11 9 7 4 4 7 9 11 12 14 14 16 16 15 14 14 11 8 11 11 9 7 6 4 3 3 4 4 4 4 4 3 3 3 3 4 4 6 4 4 6 7
12 12 14 14 5 3 6 11 10 6 6 8 8 9 10 12 12 10 11 12 11 12 13 11 8 8 9 7 6 4 5 5 5 4 4 4 2 0 2 3 4 4 4 4 4 5 5 5 6
13 13 13 9 2 0 7 12 13 9 7 8 8 6 8 10 11 8 8 6 7 9 9 10 9 8 6 4 4 4 3 2 1 2 5 4 1 2 1 3 4 4 4 5 6 6 7 7 6
10 10 11 10 9 6 8 13 15 13 10 5 4 3 3 3 3 1 3 3 3 6 8 6 9 8 6 5 3 3 2 0 1 1 4 4 3 1 3 2 3 5 5 6 6 6 5 6 6
9 10 11 10 10 11 13 16 15 12 5 0 3 5 7 6 5 9 11 14 11 8 6 4 6 6 4 6 3 3 3 2 3 3 3 5 3 2 1 2 3 4 5 5 6 6 7 6 6
8 8 10 12 13 13 14 12 7 1 7 12 14 16 17 18 17 14 15 14 13 11 5 5 4 4 2 1 2 3 3 2 2 2 3 5 4 4 3 3 4 4 4 6 6 5 5 6 7
10 11 12 15 15 16 15 12 1 7 11 16 17 20 21 22 20 17 16 14 13 12 12 12 9 6 5 4 5 5 5 5 3 1 2 4 5 6 6 6 4 3 4 6 5 6 6 5 6
9 12 15 12 7 9 13 13 2 8 12 15 17 19 20 19 18 17 16 13 12 14 13 13 13 13 11 9 8 7 8 8 8 6 5 3 4 5 8 8 6 4 4 5 5 6 7 6 7
12 12 10 7 1 5 12 9 5 13 15 16 16 17 17 17 17 17 16 15 14 14 13 14 15 14 14 13 12 10 9 8 8 8 7 7 5 5 5 5 4 3 4 5 6 6 7 7 8
10 10 10 13 12 6 12 4 8 13 14 15 15 15 15 15 15 15 14 13 12 12 12 13 12 12 12 13 13 12 12 9 8 8 8 7 5 4 1 3 4 5 6 7 6 6 7 6 6
7 10 14 14 14 14 2 9 7 9 11 11 12 12 13 12 12 12 11 10 10 9 9 9 9 9 10 10 10 9 10 10 11 11 9 8 7 7 5 3 4 5 6 7 7 6 7 7 7
6 9 8 8 10 13 13 4 5 7 5 6 8 9 10 11 11 11 10 9 8 8 7 7 7 7 7 8 8 8 8 8 8 8 9 10 10 10 9 8 7 7 7 7 7 7 7 7 7
8 10 9 8 9 12 15 5 6 6 4 5 6 8 9 11 11 11 11 10 9 9 9 7 7 7 7 7 7 7 7 8 8 7 7 7 8 9 9 9 9 9 9 8 8 7 8 7 7
7 8 7 7 9 11 14 4 5 4 4 5 7 9 11 11 12 13 13 12 11 11 11 10 9 8 8 7 7 8 8 9 9 9 8 8 8 8 9 9 10 11 11 9 9 8 7 7 6
Wind_Direction
236 237 232 251 254 248 54 68 61 58 62 65 43 43 62 55 63 89 114 113 118 126 133 135 133 132 129 130 133 136 137 137 136 133 130 127 123 118 114 110 108 107 107 105 102 100 99 99 100
266 256 244 249 268 296 72 74 70 67 60 82 76 71 79 71 85 109 113 117 123 130 139 139 137 136 135 134 136 138 139 139 138 137 136 135 133 131 127 121 116 113 112 110 109 109 108 109 111
264 261 259 240 254 283 90 88 91 94 77 81 79 62 62 87 103 116 122 125 126 133 137 139 143 142 141 140 141 142 144 145 145 144 144 145 145 145 144 142 140 137 133 130 127 124 122 124 128
269 247 236 245 213 200 104 102 102 95 96 95 96 82 79 73 113 124 131 127 127 134 138 144 147 147 148 147 148 149 151 152 153 154 155 156 158 160 163 165 167 169 168 168 167 165 163 165 172
259 260 255 261 258 228 132 130 107 89 90 90 91 94 93 99 113 128 135 130 137 139 139 148 151 151 152 153 155 156 158 160 162 164 167 171 174 179 184 189 194 198 199 201 202 202 199 198 203
271 268 276 281 206 279 195 152 104 104 116 123 118 109 104 122 129 140 140 142 145 138 140 147 153 155 157 160 163 165 167 170 173 176 180 186 191 197 203 207 210 213 215 217 219 221 221 220 221
272 290 289 284 205 253 272 164 135 175 156 132 118 115 132 144 144 148 147 152 148 141 140 150 158 162 165 169 172 175 177 180 185 189 194 200 206 213 219 223 224 225 225 226 227 229 231 231 232
276 288 288 285 212 198 252 265 150 150 110 139 158 132 147 147 153 149 155 159 152 142 146 157 161 165 171 176 181 183 186 189 194 200 206 212 218 224 228 229 227 228 228 228 230 232 234 236 237
268 269 275 292 307 183 211 264 222 138 163 195 61 116 142 148 155 152 163 164 158 149 150 164 163 167 176 181 182 186 193 199 203 210 216 220 227 228 226 228 227 224 225 226 228 231 234 237 240
249 264 274 315 348 349 163 273 262 210 193 130 58 77 128 151 156 162 169 167 162 155 160 167 166 167 181 188 171 185 195 199 205 213 210 214 227 241 247 229 221 223 224 225 227 231 235 237 242
255 263 282 306 319 323 309 280 260 248 180 121 103 77 149 171 167 172 173 169 160 165 177 166 161 162 183 183 164 187 197 192 199 217 218 215 227 241 259 257 217 219 225 227 230 229 232 233 234
256 269 286 292 300 308 300 298 299 288 136 134 136 158 197 204 186 179 174 167 159 177 188 176 156 159 181 193 183 181 192 184 195 203 216 218 214 232 250 262 246 217 222 223 234 226 222 226 235
264 268 272 275 278 279 281 285 289 294 132 133 146 166 189 204 192 181 171 163 160 177 184 175 147 148 161 194 249 207 203 198 207 200 206 216 215 228 246 258 267 268 263 243 226 249 258 255 266
276 282 280 279 276 272 268 270 271 265 195 153 156 173 192 206 196 176 166 159 163 176 179 162 154 151 159 168 190 270 292 265 268 216 242 221 223 231 253 263 265 271 286 296 294 281 275 270 265
261 270 273 267 259 253 255 262 264 263 237 186 173 183 194 199 195 170 167 166 168 176 169 155 169 163 169 176 185 197 228 229 223 178 236 238 232 234 246 259 263 260 269 276 276 274 269 265 258
263 256 257 254 246 238 238 266 277 276 249 224 207 198 196 193 186 173 170 172 173 174 160 162 179 167 162 163 176 202 220 192 191 203 210 217 224 222 223 242 250 251 254 252 256 253 259 262 264
245 243 249 252 241 229 235 269 272 299 297 265 245 223 200 188 194 181 175 178 175 161 152 162 165 148 157 164 177 198 186 183 211 208 192 183 208 225 215 248 254 249 253 254 267 263 244 259 262
300 276 249 245 200 191 261 281 292 309 302 277 255 226 199 188 200 188 186 182 164 152 151 152 149 142 152 168 176 185 173 188 202 191 157 149 198 260 48 316 346 348 317 300 301 311 289 268 262
317 317 317 315 40 305 279 286 289 289 279 272 269 242 207 198 206 193 188 174 154 144 136 147 152 144 160 165 170 166 154 184 186 167 124 113 73 10 26 304 336 317 302 321 321 312 305 297 286
296 302 300 307 322 305 283 278 277 272 263 260 279 284 207 200 202 137 70 29 61 102 106 126 132 146 170 135 115 122 112 252 243 98 132 162 191 196 284 0 332 320 328 307 289 290 289 292 296
313 323 321 317 311 292 278 270 263 260 246 161 18 14 34 43 39 43 36 25 20 55 93 128 134 142 160 137 175 172 150 211 231 192 184 165 157 182 262 308 298 312 304 299 323 311 295 295 297
311 324 318 303 288 279 278 280 276 173 70 58 45 41 42 46 51 50 50 34 22 17 29 48 75 105 107 148 263 268 245 244 257 219 185 150 166 200 205 227 258 279 291 297 295 315 328 308 297
307 311 294 284 283 283 285 274 58 80 77 58 49 48 48 51 51 45 54 57 46 29 18 28 24 30 17 345 324 317 296 288 283 278 167 171 203 203 202 205 216 247 268 279 296 302 290 284 284
304 293 283 278 296 314 319 305 72 69 77 72 59 53 53 56 57 52 51 51 44 38 26 25 27 25 14 2 344 322 307 305 307 309 300 262 233 209 201 196 193 220 253 279 286 282 280 272 272
326 310 305 311 311 224 234 259 76 70 67 69 64 58 55 54 53 51 48 45 42 38 29 27 27 25 16 12 3 355 342 321 299 285 274 258 250 235 199 187 175 225 255 267 270 273 275 278 277
313 308 309 317 316 293 216 191 99 82 74 67 62 57 52 50 49 49 47 44 39 35 30 27 23 22 18 17 10 12 6 353 339 330 317 303 295 297 339 165 199 222 242 260 267 275 277 279 282
311 329 328 319 309 308 339 110 112 79 64 58 51 46 40 37 37 35 35 34 31 27 26 18 13 10 8 9 3 11 11 3 354 347 342 333 327 313 308 270 235 234 241 250 260 264 271 275 277
273 314 315 319 317 314 317 129 146 110 81 59 42 29 21 15 13 13 12 11 6 360 3 0 357 351 347 349 348 347 349 346 346 348 351 346 339 332 321 304 283 262 250 247 249 260 265 271 277
315 315 326 324 319 319 314 17 84 90 65 33 22 12 4 356 352 348 344 342 337 334 338 342 341 336 333 331 330 327 325 325 325 322 331 336 336 334 322 307 293 279 264 254 247 251 264 271 279
325 315 314 314 316 311 307 37 67 64 48 14 353 349 344 338 334 330 327 326 324 325 326 325 323 319 315 314 315 316 315 313 310 310 316 317 317 319 320 314 300 285 275 264 254 254 265 274 281
Height
1489 1487 1488 1492 1488 1480 1470 1459 1456 1459 1461 1463 1464 1462 1468 1475 1480 1493 1495 1495 1496 1500 1504 1507 1510 1513 1516 1519 1522 1524 1526 1528 1530 1532 1534 1535 1536 1538 1539 1541 1542 1543 1544 1545 1546 1547 1548 1549 1550
1488 1489 1493 1491 1486 1486 1474 1460 1462 1463 1463 1463 1465 1466 1471 1480 1485 1490 1494 1496 1497 1500 1504 1508 1511 1514 1517 1520 1522 1525 1527 1529 1531 1533 1535 1536 1538 1539 1541 1542 1543 1544 1545 1546 1547 1548 1549 1550 1550
1488 1490 1492 1482 1483 1484 1474 1461 1461 1461 1464 1465 1468 1472 1477 1485 1489 1492 1495 1497 1498 1501 1505 1508 1511 1514 1517 1520 1523 1525 1528 1530 1531 1533 1535 1537 1538 1540 1541 1542 1544 1545 1546 1547 1548 1549 1549 1550 1551
1490 1491 1487 1478 1479 1470 1463 1459 1459 1461 1464 1464 1468 1476 1484 1488 1490 1493 1496 1499 1500 1502 1505 1508 1511 1514 1517 1520 1523 1525 1527 1529 1531 1533 1535 1537 1538 1540 1541 1542 1543 1545 1546 1547 1547 1548 1549 1550 1551
1492 1488 1479 1473 1471 1463 1458 1458 1459 1463 1463 1465 1471 1480 1487 1490 1491 1494 1497 1499 1501 1504 1505 1509 1512 1514 1517 1520 1522 1525 1527 1529 1531 1533 1535 1536 1538 1539 1540 1542 1543 1544 1544 1545 1546 1547 1548 1549 1550
1491 1481 1478 1476 1472 1465 1458 1458 1460 1464 1465 1467 1471 1479 1489 1492 1493 1495 1498 1501 1503 1504 1506 1509 1512 1514 1517 1520 1522 1525 1527 1529 1531 1533 1534 1536 1537 1538 1540 1541 1541 1542 1543 1544 1544 1545 1546 1547 1548
1491 1482 1477 1469 1469 1472 1462 1457 1460 1465 1465 1466 1468 1478 1487 1492 1494 1496 1499 1502 1504 1505 1506 1510 1512 1514 1516 1519 1521 1524 1526 1528 1530 1532 1534 1535 1536 1537 1538 1539 1540 1541 1541 1542 1543 1543 1544 1545 1545
1488 1483 1475 1465 1468 1470 1464 1459 1459 1461 1465 1469 1469 1474 1484 1489 1493 1496 1499 1502 1505 1505 1506 1509 1511 1514 1516 1518 1521 1523 1525 1527 1529 1531 1532 1534 1535 1536 1537 1537 1538 1539 1540 1540 1541 1541 1542 1542 1543
1487 1485 1479 1464 1462 1463 1461 1459 1460 1462 1466 1468 1468 1470 1478 1486 1491 1495 1498 1501 1504 1505 1505 1508 1510 1512 1515 1517 1519 1522 1524 1526 1527 1529 1530 1531 1532 1533 1534 1535 1536 1537 1538 1538 1539 1539 1540 1540 1540
1481 1482 1471 1460 1459 1460 1460 1461 1460 1461 1466 1469 1472 1478 1482 1487 1490 1493 1496 1499 1502 1505 1506 1507 1509 1510 1514 1516 1518 1520 1522 1523 1525 1527 1528 1529 1530 1531 1533 1533 1534 1534 1535 1536 1536 1537 1537 1537 1537
1476 1474 1466 1462 1461 1461 1461 1459 1457 1457 1463 1470 1478 1489 1490 1490 1491 1492 1494 1497 1499 1502 1506 1507 1509 1509 1513 1516 1517 1519 1520 1522 1522 1524 1525 1526 1527 1528 1530 1531 1531 1531 1532 1532 1532 1533 1533 1534 1534
1473 1470 1468 1466 1465 1465 1463 1460 1458 1456 1462 1465 1470 1480 1486 1490 1489 1489 1491 1494 1496 1500 1503 1506 1507 1508 1511 1515 1517 1518 1520 1521 1521 1521 1522 1523 1524 1525 1526 1527 1528 1529 1529 1529 1529 1530 1530 1531 1532
1471 1470 1469 1467 1466 1466 1465 1463 1461 1460 1462 1465 1469 1475 1481 1485 1485 1486 1488 1491 1493 1496 1500 1503 1504 1506 1508 1511 1513 1516 1518 1519 1520 1519 1519 1520 1520 1522 1523 1523 1524 1525 1526 1526 1526 1527 1527 1528 1529
1472 1469 1467 1466 1465 1464 1463 1462 1462 1460 1462 1464 1467 1473 1478 1481 1480 1481 1484 1486 1489 1493 1496 1499 1500 1503 1505 1507 1509 1512 1513 1515 1516 1516 1517 1517 1517 1518 1519 1519 1520 1520 1521 1522 1522 1523 1523 1523 1523
1472 1472 1469 1465 1462 1460 1459 1461 1458 1457 1458 1461 1464 1469 1474 1477 1478 1477 1480 1483 1485 1489 1492 1494 1497 1499 1502 1504 1506 1508 1510 1512 1512 1513 1513 1514 1514 1515 1515 1516 1516 1516 1517 1517 1517 1518 1518 1518 1518
1470 1472 1472 1460 1454 1453 1460 1467 1455 1453 1454 1457 1461 1465 1468 1472 1473 1474 1476 1479 1482 1485 1487 1490 1494 1496 1498 1500 1503 1505 1507 1509 1509 1510 1510 1511 1511 1512 1512 1512 1513 1513 1513 1513 1513 1513 1513 1513 1513
1469 1472 1466 1454 1444 1446 1455 1461 1453 1454 1455 1458 1460 1463 1465 1468 1471 1472 1473 1474 1476 1478 1480 1485 1490 1492 1495 1497 1499 1501 1504 1506 1507 1507 1508 1508 1509 1510 1510 1510 1511 1510 1510 1510 1510 1510 1509 1509 1508
1468 1459 1455 1452 1445 1450 1457 1458 1453 1454 1456 1457 1459 1460 1462 1464 1467 1467 1470 1471 1471 1471 1473 1478 1484 1489 1492 1495 1497 1499 1501 1503 1504 1506 1506 1507 1507 1508 1508 1508 1508 1508 1507 1507 1507 1507 1506 1505 1504
1463 1462 1460 1451 1446 1454 1460 1460 1455 1453 1455 1456 1458 1459 1460 1461 1465 1465 1468 1468 1467 1468 1470 1475 1482 1485 1489 1493 1495 1497 1499 1501 1503 1504 1504 1505 1505 1506 1505 1505 1504 1504 1504 1504 1503 1502 1502 1501 1501
1465 1467 1464 1456 1450 1455 1460 1460 1454 1452 1454 1456 1459 1460 1461 1463 1463 1463 1467 1466 1461 1463 1465 1474 1480 1485 1488 1491 1493 1495 1497 1498 1501 1502 1502 1502 1502 1502 1503 1502 1501 1501 1500 1499 1499 1499 1498 1497 1497
1469 1471 1469 1467 1461 1457 1461 1462 1453 1450 1452 1456 1460 1463 1464 1466 1466 1465 1464 1464 1463 1461 1467 1478 1484 1486 1489 1490 1492 1494 1495 1496 1498 1499 1499 1499 1499 1499 1499 1498 1497 1497 1496 1496 1496 1495 1494 1493 1493
1475 1467 1467 1467 1470 1470 1462 1473 1457 1451 1457 1463 1469 1470 1471 1473 1472 1472 1468 1470 1471 1473 1476 1484 1486 1488 1490 1491 1492 1493 1494 1495 1496 1497 1497 1496 1496 1496 1496 1495 1494 1493 1493 1492 1492 1492 1490 1489 1488
1470 1465 1466 1466 1470 1472 1467 1471 1465 1455 1466 1476 1477 1478 1477 1477 1478 1480 1475 1476 1478 1479 1481 1486 1486 1488 1488 1490 1491 1491 1493 1493 1494 1494 1494 1494 1493 1493 1492 1491 1491 1490 1490 1489 1488 1487 1486 1485 1484
1464 1465 1463 1464 1477 1502 1498 1493 1478 1469 1474 1480 1482 1483 1483 1484 1484 1485 1484 1482 1482 1481 1483 1484 1485 1484 1485 1486 1488 1489 1490 1490 1491 1491 1491 1491 1491 1490 1489 1488 1487 1487 1486 1486 1485 1484 1482 1482 1481
1468 1474 1483 1488 1504 1513 1499 1496 1491 1484 1483 1485 1487 1488 1488 1488 1487 1487 1487 1486 1485 1484 1484 1484 1483 1483 1484 1484 1484 1485 1485 1486 1486 1487 1487 1487 1487 1487 1486 1485 1484 1483 1483 1482 1481 1480 1479 1478 1477
1471 1472 1488 1496 1492 1484 1483 1487 1496 1491 1492 1494 1494 1493 1491 1491 1490 1490 1490 1489 1489 1488 1487 1486 1485 1484 1483 1483 1482 1482 1481 1481 1481 1482 1482 1483 1483 1483 1483 1481 1480 1479 1479 1478 1477 1476 1475 1474 1473
1473 1473 1468 1476 1475 1476 1474 1492 1498 1495 1495 1497 1498 1497 1496 1495 1494 1493 1493 1492 1491 1490 1489 1487 1485 1484 1482 1482 1481 1480 1479 1478 1477 1476 1476 1476 1477 1477 1477 1477 1476 1475 1474 1474 1473 1472 1471 1470 1468
1466 1468 1472 1482 1492 1492 1476 1488 1500 1501 1502 1500 1501 1501 1500 1498 1497 1495 1494 1493 1492 1491 1489 1487 1485 1482 1481 1480 1478 1477 1476 1475 1474 1473 1472 1471 1470 1470 1470 1471 1471 1470 1470 1469 1468 1467 1466 1465 1464
1469 1471 1472 1477 1483 1495 1496 1498 1497 1501 1502 1502 1502 1502 1501 1500 1499 1497 1495 1493 1491 1490 1488 1486 1484 1481 1479 1477 1475 1473 1471 1470 1469 1468 1467 1466 1465 1464 1464 1464 1464 1465 1465 1464 1463 1462 1462 1460 1459
1467 1471 1475 1489 1491 1486 1491 1507 1499 1501 1502 1503 1503 1503 1502 1501 1499 1496 1494 1491 1489 1487 1485 1483 1481 1478 1476 1473 1471 1469 1467 1465 1463 1462 1461 1460 1459 1459 1458 1457 1457 1458 1458 1459 1458 1457 1457 1455 1454